City of Derry Airport

Jump to: basic info | weather | frequencies | runways | comments

Related pages: nearby airports | nearby navaids | notams | map

Basic information (top)

Codes: LDY EGAE
Location: lon 55.042801, lat -7.161110, elev 22 ft / 7 m msl
Status: medium_airport
Scheduled airline service: yes
Links: Wikipedia Mobile

Weather (top)

Current conditions (rec'd 2014/10/24 10:50Z):

EGAE 241050Z 23016KT 9999 FEW018 11/07 Q1007

Airport forecast for Belfast International Airport 40nm (74km) SE (rec'd 2014/10/24 06:15Z):

TAF TAF EGAA 240458Z 2406/2506 23012KT 9999 SCT020 SCT045 PROB30 
      TEMPO 2406/2412 8000 -SHRA PROB30 
      TEMPO 2412/2417 23015G25KT 7000 SHRA BKN014 
      BECMG 2502/2506 22018G28KT PROB30 
      TEMPO 2503/2506 8000 -SHRA BKN012

Frequencies (top)

Verify before use: may be inaccurate or out of date.

APP: 123.625 MHz (APP)
TWR: 134.15 MHz (TWR)

Runways (top)

02/20: 3,955 x 148 ft (1,205 x 45 m) — paved — lighted — threshold 02 displaced 435 ft (133 m)

08/26: 6,076 x 147 ft (1,852 x 45 m) — paved — lighted — threshold 08 displaced 433 ft (132 m)

Latest comments (top)

Excellant airport: You have full services ils , fuel car ... [read]

More... (top)

See also NOTAMs and nearby airports and navaids, or visit the City of Derry Airport page at the main OurAirports website..